Stündliche Wetter Warnileg

Heute, 27 Oktober, Dienstag

Zeit Temperatur Niederschläge Wind Luftdruck Luftfeuchtigkeit
00:00 +10°C° 0 mm 3 m/S 740 mmHg 89%
01:00 +10°C° 0 mm 3 m/S 740 mmHg 92%
02:00 +10°C° 0 mm 3 m/S 740 mmHg 93%
03:00 +9°C° 0 mm 2 m/S 741 mmHg 93%
04:00 +9°C° 0 mm 2 m/S 741 mmHg 94%
05:00 +9°C° 0 mm 2 m/S 741 mmHg 95%
06:00 +8°C° 0 mm 2 m/S 742 mmHg 95%
07:00 +8°C° 0 mm 2 m/S 742 mmHg 96%
08:00 +9°C° 0 mm 3 m/S 743 mmHg 89%
09:00 +10°C° 0 mm 3 m/S 743 mmHg 82%
10:00 +10°C° 0 mm 3 m/S 743 mmHg 74%
11:00 +11°C° 0 mm 4 m/S 743 mmHg 71%
12:00 +11°C° 0 mm 4 m/S 743 mmHg 68%
13:00 +12°C° 0 mm 4 m/S 743 mmHg 64%
14:00 +11°C° 0 mm 4 m/S 743 mmHg 66%
15:00 +11°C° 0 mm 3 m/S 743 mmHg 68%
16:00 +11°C° 0 mm 3 m/S 743 mmHg 70%
17:00 +10°C° 0 mm 3 m/S 744 mmHg 71%
18:00 +10°C° 0 mm 4 m/S 744 mmHg 72%
19:00 +10°C° 0 mm 4 m/S 744 mmHg 73%
20:00 +8°C° 0 mm 4 m/S 744 mmHg 75%
21:00 +8°C° 0 mm 4 m/S 744 mmHg 77%
22:00 +7°C° 0 mm 4 m/S 744 mmHg 80%
23:00 +7°C° 0 mm 4 m/S 744 mmHg 80%

Morgen, 28 Oktober, Mittwoch

Zeit Temperatur Niederschläge Wind Luftdruck Luftfeuchtigkeit
00:00 +7°C° 0 mm 4 m/S 744 mmHg 80%
01:00 +7°C° 0 mm 4 m/S 744 mmHg 80%
02:00 +7°C° 0 mm 4 m/S 744 mmHg 80%
03:00 +6°C° 0 mm 4 m/S 744 mmHg 79%
04:00 +6°C° 0 mm 4 m/S 744 mmHg 79%
05:00 +6°C° 0 mm 5 m/S 744 mmHg 79%
06:00 +6°C° 0 mm 5 m/S 744 mmHg 80%
07:00 +6°C° 0 mm 5 m/S 744 mmHg 80%
08:00 +7°C° 0 mm 5 m/S 744 mmHg 77%
09:00 +7°C° 0 mm 6 m/S 744 mmHg 75%
10:00 +8°C° 0 mm 6 m/S 744 mmHg 72%
11:00 +8°C° 0 mm 6 m/S 744 mmHg 72%
12:00 +9°C° 0 mm 6 m/S 744 mmHg 71%
13:00 +9°C° 0 mm 6 m/S 744 mmHg 71%
14:00 +9°C° 0.1 mm 5 m/S 744 mmHg 74%
15:00 +9°C° 0.1 mm 5 m/S 744 mmHg 78%
16:00 +10°C° 0.1 mm 4 m/S 744 mmHg 81%
17:00 +10°C° 0.1 mm 4 m/S 745 mmHg 82%
18:00 +10°C° 0.1 mm 4 m/S 745 mmHg 84%
19:00 +10°C° 0.1 mm 4 m/S 745 mmHg 85%
20:00 +8°C° 0 mm 4 m/S 745 mmHg 87%
21:00 +9°C° 0 mm 3 m/S 745 mmHg 89%
22:00 +8°C° 0 mm 3 m/S 745 mmHg 91%
23:00 +8°C° 0 mm 3 m/S 745 mmHg 90%

übermorgen, 29 Oktober, Donnerstag

Zeit Temperatur Niederschläge Wind Luftdruck Luftfeuchtigkeit
00:00 +8°C° 0 mm 3 m/S 745 mmHg 89%
01:00 +7°C° 0 mm 4 m/S 745 mmHg 87%
02:00 +7°C° 0 mm 4 m/S 745 mmHg 88%
03:00 +7°C° 0 mm 4 m/S 745 mmHg 89%
04:00 +7°C° 0 mm 4 m/S 745 mmHg 90%
05:00 +7°C° 0 mm 4 m/S 745 mmHg 90%
06:00 +7°C° 0 mm 4 m/S 745 mmHg 90%
07:00 +7°C° 0 mm 4 m/S 745 mmHg 90%
08:00 +7°C° 0 mm 4 m/S 745 mmHg 86%
09:00 +8°C° 0 mm 5 m/S 745 mmHg 83%
10:00 +9°C° 0 mm 5 m/S 745 mmHg 80%
11:00 +9°C° 0.3 mm 5 m/S 745 mmHg 80%
12:00 +10°C° 0.3 mm 4 m/S 745 mmHg 79%
13:00 +10°C° 0.3 mm 4 m/S 745 mmHg 79%
14:00 +8°C° 0.2 mm 4 m/S 746 mmHg 78%
15:00 +8°C° 0.2 mm 4 m/S 746 mmHg 78%
16:00 +8°C° 0.2 mm 4 m/S 746 mmHg 77%
17:00 +8°C° 0 mm 4 m/S 747 mmHg 78%
18:00 +7°C° 0 mm 4 m/S 747 mmHg 79%
19:00 +7°C° 0 mm 4 m/S 748 mmHg 80%
20:00 +7°C° 0.1 mm 4 m/S 748 mmHg 81%
21:00 +7°C° 0.1 mm 5 m/S 748 mmHg 82%
22:00 +7°C° 0.1 mm 5 m/S 749 mmHg 83%
23:00 +7°C° 0 mm 5 m/S 749 mmHg 84%

30 Oktober, Freitag

Zeit Temperatur Niederschläge Wind Luftdruck Luftfeuchtigkeit
00:00 +7°C° 0 mm 5 m/S 749 mmHg 85%
01:00 +6°C° 0 mm 5 m/S 749 mmHg 86%
02:00 +6°C° 0 mm 5 m/S 750 mmHg 86%
03:00 +6°C° 0 mm 5 m/S 750 mmHg 86%
04:00 +6°C° 0 mm 5 m/S 750 mmHg 86%
05:00 +6°C° 0 mm 5 m/S 750 mmHg 87%
06:00 +6°C° 0 mm 5 m/S 751 mmHg 89%
07:00 +5°C° 0 mm 4 m/S 751 mmHg 90%
08:00 +6°C° 0 mm 4 m/S 751 mmHg 88%
09:00 +6°C° 0 mm 4 m/S 751 mmHg 86%
10:00 +7°C° 0 mm 3 m/S 752 mmHg 83%
11:00 +8°C° 0 mm 3 m/S 752 mmHg 81%
12:00 +8°C° 0 mm 3 m/S 752 mmHg 79%
13:00 +9°C° 0 mm 3 m/S 752 mmHg 77%
14:00 +8°C° 0.1 mm 3 m/S 752 mmHg 81%
15:00 +8°C° 0.1 mm 2 m/S 752 mmHg 85%
16:00 +8°C° 0.1 mm 2 m/S 752 mmHg 88%
17:00 +8°C° 0.1 mm 2 m/S 752 mmHg 89%
18:00 +8°C° 0.1 mm 2 m/S 752 mmHg 90%
19:00 +8°C° 0.1 mm 2 m/S 753 mmHg 91%
20:00 +8°C° 0 mm 2 m/S 753 mmHg 92%
21:00 +7°C° 0 mm 2 m/S 753 mmHg 93%
22:00 +7°C° 0 mm 2 m/S 753 mmHg 95%
23:00 +8°C° 0 mm 2 m/S 753 mmHg 95%

31 Oktober, Samstag

Zeit Temperatur Niederschläge Wind Luftdruck Luftfeuchtigkeit
00:00 +8°C° 0 mm 2 m/S 753 mmHg 95%
01:00 +8°C° 0 mm 2 m/S 753 mmHg 95%
02:00 +8°C° 0.1 mm 2 m/S 753 mmHg 95%
03:00 +8°C° 0.1 mm 2 m/S 753 mmHg 96%
04:00 +8°C° 0.1 mm 3 m/S 753 mmHg 96%
05:00 +8°C° 0.5 mm 3 m/S 753 mmHg 96%
06:00 +9°C° 0.5 mm 3 m/S 753 mmHg 96%
07:00 +9°C° 0.5 mm 3 m/S 753 mmHg 97%
08:00 +9°C° 0.2 mm 3 m/S 753 mmHg 96%
09:00 +9°C° 0.2 mm 2 m/S 753 mmHg 96%
10:00 +10°C° 0.2 mm 2 m/S 754 mmHg 96%
11:00 +10°C° 0.1 mm 2 m/S 754 mmHg 94%
12:00 +12°C° 0.1 mm 2 m/S 754 mmHg 93%
13:00 +12°C° 0.1 mm 1 m/S 754 mmHg 92%
14:00 +12°C° 0 mm 1 m/S 754 mmHg 92%
15:00 +12°C° 0 mm 2 m/S 754 mmHg 93%
16:00 +12°C° 0 mm 2 m/S 754 mmHg 93%
17:00 +10°C° 0 mm 2 m/S 754 mmHg 93%
18:00 +10°C° 0 mm 2 m/S 754 mmHg 94%
19:00 +10°C° 0 mm 3 m/S 754 mmHg 94%
20:00 +10°C° 0 mm 3 m/S 754 mmHg 93%
21:00 +10°C° 0 mm 4 m/S 754 mmHg 93%
22:00 +10°C° 0 mm 4 m/S 754 mmHg 92%
23:00 +8°C° 0 mm 4 m/S 754 mmHg 92%

1 November, Sonntag

Zeit Temperatur Niederschläge Wind Luftdruck Luftfeuchtigkeit
00:00 +8°C° 0 mm 5 m/S 754 mmHg 91%
01:00 +7°C° 0 mm 5 m/S 754 mmHg 90%
02:00 +7°C° 0 mm 5 m/S 754 mmHg 88%
03:00 +7°C° 0 mm 5 m/S 754 mmHg 86%
04:00 +6°C° 0 mm 5 m/S 754 mmHg 84%
05:00 +6°C° 0 mm 5 m/S 754 mmHg 83%
06:00 +6°C° 0 mm 5 m/S 753 mmHg 83%
07:00 +5°C° 0 mm 5 m/S 753 mmHg 83%
08:00 +5°C° 0 mm 6 m/S 753 mmHg 78%
09:00 +7°C° 0 mm 6 m/S 753 mmHg 72%
10:00 +8°C° 0 mm 6 m/S 753 mmHg 67%
11:00 +8°C° 0 mm 6 m/S 753 mmHg 63%
12:00 +9°C° 0 mm 6 m/S 753 mmHg 59%
13:00 +10°C° 0 mm 6 m/S 753 mmHg 55%
14:00 +9°C° 0 mm 6 m/S 753 mmHg 57%
15:00 +9°C° 0 mm 5 m/S 753 mmHg 59%
16:00 +8°C° 0 mm 5 m/S 753 mmHg 62%
17:00 +8°C° 0 mm 5 m/S 753 mmHg 64%
18:00 +7°C° 0 mm 5 m/S 753 mmHg 67%
19:00 +7°C° 0 mm 5 m/S 753 mmHg 69%
20:00 +7°C° 0 mm 5 m/S 753 mmHg 69%
21:00 +7°C° 0 mm 5 m/S 753 mmHg 69%
22:00 +7°C° 0 mm 5 m/S 754 mmHg 70%
23:00 +7°C° 0 mm 5 m/S 753 mmHg 72%
Mehr zeigen

Wir brauchen deine Erlaubnis

Meteoprog und unser Service Anbieter werden persönliche Daten aufbewahren, so wie Cookies, Geräte Bezeichnung oder ähnliche Technologien von deinem Gerät und Prozess, so wie Persönliche Daten Inhalte und Werbungen, genauso wie social Media und den Verkehr zu analysieren.

  • Aufbewahrung und/oder Zugang zu deiner Geräte Informationen.

    Cookies, Geräte Bezeichnung oder andere Informationen, können aufbewahrt oder Zugang zu deinem Gerät erhalten, für den Grund, der oben angegeben wird.

  • Personalisierte Werbung und Inhalte, Messungen, Einblick in das Publikum und Produkt Entwicklung.

    Werbungen und Inhalte können personalisiert werden, basierend auf ein Profil. Mehr Daten können besser personalisierte Werbungen und Inhalte hinzufügen. Werbung und Inhalte können gezeigt und gemessen werden. Einblicke über das Publikum, welche die Werbung gesehen haben und den Inhalt, können abgeleitet werden. So wie Daten können genutzt werden, um es zu verbessern oder die Benutzer Erfahrung zu verbessern das System und die Software.

Wenn du “Ich stimme zu” klickst, erlaubst du uns, die Cookies zu benutzen die Geräte Bezeichnung, den Web oder ähnliche Technologien zu benutzen. Deine Settings, können in deinem Gerät bei deinem Browser geändert werden.

Für den bestimmten Zweck, berechtigten Interessen beruhen darauf, mehr als auf den Inhalt. Du kannst mehr darüber in unseren Privaten und Cookie Politik lesen.